Voltar ao catálogo

SL-14 DEB

AtivoPO
NORAD 47081·DEBRIS·🇷🇺 Russia

Lançado Aug 15, 1991 de Plesetsk Cosmodrome

Loading…

Próximas Passagens (próximas 24 horas)

TLE

AtualizadoSource: Space-Track

Época: Sep 14, 2026, 07:12 UTC

1 47081U 91056DF  26257.30068978  .00001076  00000-0  17200-2 0  9990
2 47081  82.5852   6.8770 0103911 274.7664  84.1615 13.46191020287066

Acompanhe SL-14 DEB em tempo real com AllMySat

Download on the App Store